Overview Statistics Trail Chart Weather Telemetry Raw packets
 

This is the latest recevied weather packets stored in our database for station/object PACCTY-2. If no packets are shown the sender has not sent any weather packets the latest 10 day(s).

<< 22 23 24 25 26 27 28 >>
Time Temp. Humidity Pressure Rain* Wind** Luminosity Snow
1788474003 15° C - 1007.6 hPa 0 mm - - -
1788473702 15° C - 1007.6 hPa 0 mm - - -
1788473426 15° C - 1007.4 hPa 0 mm - - -
1788473100 15.56° C - 1007.6 hPa 0 mm - - -
1788472498 15° C - 1007.4 hPa 0 mm - - -
1788471896 15.56° C - 1007.5 hPa 0 mm - - -
1788471595 15.56° C - 1007.6 hPa 0 mm - - -
1788470993 15.56° C - 1007.9 hPa 0 mm - - -
1788469789 16.11° C - 1007.6 hPa 0 mm - - -
1788469488 16.11° C - 1007.4 hPa 0 mm - - -
1788469187 16.67° C - 1007.4 hPa 0 mm - - -
1788468886 16.67° C - 1007.5 hPa 0 mm - - -
1788468284 16.67° C - 1007.4 hPa 0 mm - - -
1788467682 15.56° C - 1007.5 hPa 0 mm - - -
1788467381 15.56° C - 1007.4 hPa 0 mm - - -
1788466177 15.56° C - 1007.4 hPa 0 mm - - -
1788465877 15.56° C - 1007.4 hPa 0 mm - - -
1788464672 15.56° C - 1007.7 hPa 0 mm - - -
1788464371 15° C - 1007.7 hPa 0 mm - - -
1788464070 15° C - 1007.7 hPa 0 mm - - -
1788463769 15° C 95% 1007.8 hPa 0 mm - - -
1788463468 15° C 95% 1007.8 hPa 0 mm - - -
1788462565 15° C 95% 1007.7 hPa 0 mm - - -
1788462265 15° C 95% 1007.8 hPa 0 mm - - -
1788461963 15° C 95% 1007.8 hPa 0 mm - - -

* Rain latest hour (hover to see other rain measurements)
** Current wind speed in m/s (hover to see current wind gust speed)